Other Public Products
Issued by NWS Grand Forks, ND

Home | Current Version | Previous Version | Graphics & Text | Print | Product List | Glossary On
Versions: 1 2 3 4 5 6 7 8 9 10 11 12 13 14 15 16 17 18 19 20 21 22 23 24 25 26 27 28 29 30 31 32 33 34 35 36 37 38 39 40 41 42 43 44 45 46 47 48 49 50
000
FPUS83 KFGF 240310
OPUFGF
PRAIRIE TO PINES WEATHER ROUNDUP
NATIONAL WEATHER SERVICE EASTERN NORTH DAKOTA/GRAND FORKS ND
1000 PM CDT SUN APR 23 2017

 **SATELLITE DATA USED TO AUGMENT SKY COVER AT AUTOMATED STATIONS**
 *****  WEATHER ACROSS EASTERN NORTH DAKOTA  *****

CITY           SKY/WX    TMP DP  RH WIND       PRES   REMARKS
GRAND FORKS    LGT SNOW  33  30  88 NE20      29.99F FOG     WCI  21
GRAND FORKS AF MIX PCPN  32  28  86 E17       29.98F WCI  21
GRAND CITY NWS NOT AVBL
BUXTON         NOT AVBL
DEVILS LAKE    CLOUDY    29  26  89 E21       29.95F WCI  16
FARGO          FAIR      38  32  79 E15G24    29.89F
WAHPETON ARPT  FAIR      41  34  75 E18       29.84F
$$

 *****  WEATHER ACROSS CENTRAL AND WESTERN NORTH DAKOTA  *****

CITY           SKY/WX    TMP DP  RH WIND       PRES   REMARKS
JAMESTOWN      CLOUDY    32  29  88 E16G29    29.86F WCI  21
BISMARCK       CLOUDY    33  31  92 E18       29.86R WCI  22
MINOT          CLOUDY    31  28  89 E16       29.90F WCI  20
MINOT AFB      CLOUDY    31  26  83 E15       29.90F WCI  20
GARRISON         N/A     28  26  92 E18G28    29.89R WCI  15
WILLISTON      CLOUDY    31  27  85 E15       29.85F WCI  20
DICKINSON      CLOUDY    31  30  96 E21       29.74F FOG     WCI  18
HETTINGER      CLOUDY    37  33  85 E20G26    29.73S
$$

 *****  OTHER OBSERVATIONS NORTHEAST NORTH DAKOTA  *****

CITY           SKY/WX    TMP DP  RH WIND       PRES   REMARKS
WALHALLA       NOT AVBL
LANGDON        CLOUDY    32  18  55 E18       29.98F WCI  20
CAVALIER       FAIR      34  19  55 E10       30.03F
GRAFTON        CLOUDY    32  32 100 E13       30.04F FOG     WCI  22
CANDO          NOT AVBL
FORT TOTTEN      N/A     28  28  98 E13       29.95S WCI  17
ROLLA          CLOUDY    32  19  59 E12G18    29.96F WCI  23
RUGBY          NOT AVBL
 ***** THE ABOVE OBSERVATIONS ARE NON NWS ARE NOT QUALITY
        CONTROLLED AND MAY MIS-REPORT RAIN FOR SNOW...
$$

 *****  OTHER OBSERVATIONS SOUTHEAST NORTH DAKOTA *****

CITY           SKY/WX    TMP DP  RH WIND       PRES   REMARKS
COOPERSTOWN    CLOUDY    30  30 100 NE25G32   29.91F WCI  16
VALLEY CITY    CLOUDY    32  32 100 NE20G29   29.89S WCI  20
OAKES          NOT AVBL
GWINNER        CLEAR     39  36  87 MISG      29.82F
BUFFALO        NOT AVBL
WYNDMERE         N/A     43  37  81 E15         N/A
 ***** THE ABOVE OBSERVATIONS ARE NON NWS ARE NOT QUALITY
       CONTROLLED AND MAY MIS-REPORT RAIN FOR SNOW...
$$

  *****  WEATHER ACROSS NORTHERN MINNESOTA  *****

CITY           SKY/WX    TMP DP  RH WIND       PRES   REMARKS
FLAG ISLAND    FAIR      36  12  38 E7        30.09F
WARROAD        CLOUDY    37  19  48 E16       30.06F
ROSEAU         CLOUDY    36  21  55 NE13      30.05F
HALLOCK        FAIR      36  16  44 E12G17    30.03F
THF RVR FALLS  FLURRIES  30  28  92 NE16      30.01F WCI  19
HALSTAD          N/A     35  30  83 E14         N/A
FOSSTON        CLOUDY    30  27  86 E13G18    29.97S WCI  20
BAUDETTE       CLOUDY    35  14  42 E7        30.07S
WASKISH        FLURRIES  30  28  93 E10       30.05F WCI  21
CROOKSTON      MIX PCPN  32  30  93 E17G23    29.99F WCI  21
$$
  *****  WEATHER ACROSS CENTRAL AND WEST MINNESOTA  *****

CITY           SKY/WX    TMP DP  RH WIND       PRES   REMARKS
BEMIDJI        DRIZZLE   32  29  89 E17       29.99F WCI  21
PARK RAPIDS    CLOUDY    35  30  82 E12G24    29.95S
WADENA         CLOUDY    37  32  81 E13G20    29.92S
DETROIT LAKES  CLOUDY    36  32  87 E13G21    29.92F
MOORHEAD       FAIR      37  32  81 E15       29.90F
FERGUS FALLS   FAIR      39  34  81 E17G31    29.84F
ELBOW LAKE     FAIR      42  36  78 E21G28    29.83F
MORRIS MN      FAIR      46  37  71 E26G33    29.80F
STAPLES        FAIR      36  30  80 E9G17     29.94S
WHEATON        FAIR      48  37  66 E22       29.81F
$$
  *****  WEATHER ELSEWHERE ACROSS MINNESOTA  *****

CITY           SKY/WX    TMP DP  RH WIND       PRES   REMARKS
DULUTH         MOCLDY    31  25  78 E17       30.05F WCI  19
INTRNTL FALLS  CLOUDY    34  23  64 SE3       30.08S
ELY            CLOUDY    32  28  86 E7        30.08S
CLOQUET        FAIR      32  25  74 E16G23    30.03F WCI  21
BRAINERD       FAIR      35  27  72 E12       29.97S
HIBBING        CLOUDY    31  29  92 E10       30.05S WCI  22
ALEXANDRIA     FAIR      41  35  79 E22G30    29.88S
SAINT CLOUD    FAIR      40  35  83 NE10      29.93R
MINNEAPOLIS    MOCLDY    56  41  57 NE12      29.90R
$$

  *****  WEATHER ACROSS SOUTH DAKOTA  *****

CITY           SKY/WX    TMP DP  RH WIND       PRES   REMARKS
SIOUX FALLS    MOCLDY    61  31  32 S15       29.79S
BROOKINGS      FAIR      60  32  34 S12       29.77S
WATERTOWN      FAIR      57  33  40 SE7       29.73F
HURON          FAIR      64  30  27 S15       29.68S
SISSETON         N/A     50  41  71 E14       29.79S
ABERDEEN       FAIR      49  39  68 NE18      29.71S
MITCHELL       FAIR      65  30  27 S16       29.72S
PIERRE         FAIR      56  45  66 N10       29.60S
MOBRIDGE       CLOUDY    40  32  73 NE13G23   29.73S
RAPID CITY     FAIR      53  40  61 N10       29.62F
$$

  *****  SOME WEATHER IN NEARBY STATES *****

CITY           SKY/WX    TMP DP  RH WIND       PRES   REMARKS
GLASGOW MT     CLOUDY    34  29  82 E17       29.74R WCI  23
GREAT FALLS MT MOCLDY    46  37  71 S6        29.68S
CHEYENNE WY    FAIR      52  36  54 SW7       29.74F
SCOTTSBLUFF NE FAIR      60  37  42 SE9       29.65R
OMAHA NE       FAIR      62  31  31 S14       29.91S
DES MOINES IA  FAIR      60  33  36 S7        29.96F
DAVENPORT IA   FAIR      57  32  38 S5        30.02R
CHICAGO IL     MOCLDY    47  38  71 NE8       30.05S
EAU CLAIRE WI  FAIR      54  40  59 NE7       29.92S
LA CROSSE WI   FAIR      60  41  49 E3        29.94S
$$

  *****  SOME NATIONAL WEATHER *****

CITY           SKY/WX    TMP DP  RH WIND       PRES   REMARKS
LA GUARDIA NY  MOCLDY    53  44  71 S9        30.13R
RALEIGH NC     CLOUDY    53  51  93 E10G22    29.98F
ATLANTA GA     CLOUDY    56  53  90 E13       29.81S
NEW ORLEANS LA FAIR      60  50  69 N10       29.97R
OKLAHOMA CITY  FAIR      53  39  59 E9        30.00S
ALBUQUERQUE NM FAIR      68  29  23 S22       29.89R
SALT LAKE CITY FAIR      57  38  48 SE7       29.80F
LOS ANGELES CA FAIR      62  53  72 W10       29.83S
BOISE ID       MOCLDY    57  40  52 NE5       29.76S
SEATTLE WA     LGT RAIN  48  46  93 S8        29.83S
$$

*** WEATHER ACROSS MANITOBA...SASKATCHEWAN AND ONTARIO ***
                ***ONTARIO***

CITY           SKY/WX    TMP DP  RH WIND       PRES   REMARKS
GERALDTON      CLEAR     25  10  54 E3        30.19R
THUNDER BAY    CLOUDY    32  21  64 E8        30.20R WCI  25
SIOUX LOOKOUT  PTCLDY    25  14  63 E2        30.14R
TORONTO        CLEAR     50  36  57 N12       30.08S
BIG TROUT LK   CLEAR     10   0  61 NE6       30.28R WCI   1
PICKLE LAKE    NOT AVBL
DRYDEN         MOCLDY    30  12  47 E3        30.12S
KENORA         PTCLDY    32  12  43 E5        30.10S
$$
                *** MANITOBA***

CITY           SKY/WX    TMP DP  RH WIND       PRES   REMARKS
BRANDON        PTCLDY    32  19  59 E17       30.02F WCI  21
DAUPHIN        PTCLDY    32  19  59 E8        30.07S WCI  25
ISLAND LAKE    CLEAR     18   1  49 E8        30.23R WCI   7
PILOT MOUND      N/A     32  18  55 E9          N/A  WCI  24
THE PAS        PTCLDY    28   5  37 E7        30.13S WCI  21
THOMPSON       CLEAR     12  -6  44 NE7       30.26R WCI   2
WINNIPEG       PTCLDY    32  21  64 NE13      30.09S WCI  22
LYNN LAKE      CLEAR     14  -2  48 NE5       30.19S WCI   6
CHURCHILL      MOCLDY    -2  -8  78 NW9       30.39S WCI -18
GILLAM         CLEAR      5  -6  61 E5        30.33R WCI  -4
$$
                ***SASKATCHEWAN***

CITY           SKY/WX    TMP DP  RH WIND       PRES   REMARKS
ESTEVAN        CLOUDY    32  25  74 E14G22    29.90S WCI  22
KINDERSLEY     CLOUDY    32  30  93 E14G23    29.76S WCI  22
LLOYDMINSTER   LGT SNOW  32  32 100 E20       29.83S WCI  20
PRINCE ALBERT  CLOUDY    37  23  56 E14G20    29.96S
REGINA         FLURRIES  32  21  64 E23G31    29.90R WCI  19
YORKTON        CLOUDY    36  21  55 E17       29.97R
N. BATTLEFORD  LGT RAIN  32 N/A N/A E14       29.89S W



USA.gov is the U.S. government's official web portal to all federal, state and local government web resources and services.